GW4340 Weather Reports


Display with metric or nautical units.
time (UTC)temp
F
wind
direction
speed
MPH
gust
MPH
rain 1hr
in
rain 24hr
in
rain mn
in
humidity
%
barometer
mb
20260504000822 34 0.0 0.0 0.00 0.00 0.00 10 1023.0
20260503235922 34 0.0 0.0 0.00 0.00 0.00 10 1023.0
20260503235022 34 0.0 0.0 0.00 0.00 0.00 10 1022.9
20260503234122 34 0.0 0.0 0.00 0.00 0.00 10 1022.8
20260503233222 34 0.0 0.0 0.00 0.00 0.00 10 1022.8
20260503232322 34 0.0 0.0 0.00 0.00 0.00 10 1022.9
20260503231422 34 0.0 0.0 0.00 0.00 0.00 10 1022.8
20260503230522 34 0.0 0.0 0.00 0.00 0.00 10 1023.0
20260503225637 34 0.0 0.0 0.00 0.00 0.00 10 1023.0
20260503224722 35 0.0 0.0 0.00 0.00 0.00 10 1022.9
20260503223822 35 0.0 0.0 0.00 0.00 0.00 10 1022.9
20260503222922 35 0.0 0.0 0.00 0.00 0.00 10 1022.8
20260503222022 35 0.0 0.0 0.00 0.00 0.00 10 1022.9
20260503221122 35 0.0 0.0 0.00 0.00 0.00 10 1022.9
20260503220222 35 0.0 0.0 0.00 0.00 0.00 10 1022.8
20260503215322 35 0.0 0.0 0.00 0.00 0.00 10 1022.9
20260503214422 35 0.0 0.0 0.00 0.00 0.00 10 1022.9
20260503213522 35 0.0 0.0 0.00 0.00 0.00 10 1022.8
20260503212622 36 0.0 0.0 0.00 0.00 0.00 10 1022.8
20260503211722 35 0.0 0.0 0.00 0.00 0.00 10 1022.9
20260503210822 35 0.0 0.0 0.00 0.00 0.00 10 1023.0
20260503205922 34 0.0 0.0 0.00 0.00 0.00 10 1023.1
20260503205022 35 0.0 0.0 0.00 0.00 0.00 10 1023.0
20260503204122 35 0.0 0.0 0.00 0.00 0.00 10 1023.0
20260503203222 35 0.0 0.0 0.00 0.00 0.00 10 1023.0
20260503202322 35 0.0 0.0 0.00 0.00 0.00 10 1023.2
20260503201437 35 0.0 0.0 0.00 0.00 0.00 10 1023.1
20260503200522 36 0.0 0.0 0.00 0.00 0.00 10 1023.1
20260503195622 35 0.0 0.0 0.00 0.00 0.00 10 1023.2
20260503194722 36 0.0 0.0 0.00 0.00 0.00 10 1023.2
20260503193822 36 0.0 0.0 0.00 0.00 0.00 10 1023.1
20260503192922 36 0.0 0.0 0.00 0.00 0.00 10 1023.0
20260503192022 36 0.0 0.0 0.00 0.00 0.00 10 1023.0
20260503191122 36 0.0 0.0 0.00 0.00 0.00 10 1022.9
20260503190222 37 0.0 0.0 0.00 0.00 0.00 10 1023.0
20260503185322 37 0.0 0.0 0.00 0.00 0.00 10 1023.0
20260503184422 37 0.0 0.0 0.00 0.00 0.00 10 1022.9
20260503183522 37 0.0 0.0 0.00 0.00 0.00 10 1022.9
20260503182638 38 0.0 0.0 0.00 0.00 0.00 10 1022.6
20260503181722 38 0.0 0.0 0.00 0.00 0.00 10 1022.5
20260503180822 38 0.0 0.0 0.00 0.00 0.00 10 1022.6
20260503175937 39 0.0 0.0 0.00 0.00 0.00 10 1022.4
20260503175022 39 0.0 0.0 0.00 0.00 0.00 10 1022.4
20260503174122 40 0.0 0.0 0.00 0.00 0.00 10 1022.2
20260503173237 40 0.0 0.0 0.00 0.00 0.00 10 1022.1
20260503172337 41 0.0 0.0 0.00 0.00 0.00 10 1021.8
20260503171422 42 0.0 0.0 0.00 0.00 0.00 10 1021.7
20260503170522 43 0.0 0.0 0.00 0.00 0.00 10 1021.5
20260503150822 49 0.0 0.0 0.00 0.00 0.00 64 1020.7
20260503131122 49 0.0 0.0 0.00 0.00 0.00 64 1021.4
20260503130222 50 0.0 0.0 0.00 0.00 0.00 66 1021.2
20260503110522 50 0.0 0.0 0.00 0.00 0.00 82 1022.0
20260503100222 46 0.0 0.0 0.00 0.00 0.00 85 1023.3
20260503081422 43 0.0 0.0 0.00 0.00 0.00 10 1024.1
20260503080522 42 0.0 0.0 0.00 0.00 0.00 10 1024.4
20260503072922 43 0.0 0.0 0.00 0.00 0.00 10 1024.0
20260503072022 43 0.0 0.0 0.00 0.00 0.00 10 1024.1
20260503071122 42 0.0 0.0 0.00 0.00 0.00 10 1024.2
20260503070221 42 0.0 0.0 0.00 0.00 0.00 10 1024.1
20260503055037 42 0.0 0.0 0.00 0.00 0.00 10 1023.9
20260503054137 41 0.0 0.0 0.00 0.00 0.00 10 1024.0
20260503053222 41 0.0 0.0 0.00 0.00 0.00 10 1024.0
20260503052322 41 0.0 0.0 0.00 0.00 0.00 10 1023.9
20260503051422 41 0.0 0.0 0.00 0.00 0.00 10 1023.9
20260503050522 41 0.0 0.0 0.00 0.00 0.00 10 1023.7
20260503045652 40 0.0 0.0 0.00 0.00 0.00 10 1023.9
20260503044722 39 0.0 0.0 0.00 0.00 0.00 10 1023.9
20260503043837 38 0.0 0.0 0.00 0.00 0.00 10 1024.1
20260503042922 38 0.0 0.0 0.00 0.00 0.00 10 1024.0
20260503042037 37 0.0 0.0 0.00 0.00 0.00 10 1024.0
20260503041122 37 0.0 0.0 0.00 0.00 0.00 10 1024.0
20260503040222 37 0.0 0.0 0.00 0.00 0.00 10 1024.0
20260503035322 36 0.0 0.0 0.00 0.00 0.00 10 1024.0
20260503034422 36 0.0 0.0 0.00 0.00 0.00 10 1023.9
20260503033522 36 0.0 0.0 0.00 0.00 0.00 10 1023.8
20260503032622 35 0.0 0.0 0.00 0.00 0.00 10 1023.8
20260503031722 35 0.0 0.0 0.00 0.00 0.00 10 1023.7
20260503030822 35 0.0 0.0 0.00 0.00 0.00 10 1023.7
20260503025937 35 0.0 0.0 0.00 0.00 0.00 10 1023.6
20260503025022 35 0.0 0.0 0.00 0.00 0.00 10 1023.7
20260503024122 35 0.0 0.0 0.00 0.00 0.00 10 1023.6
20260503023222 35 0.0 0.0 0.00 0.00 0.00 10 1023.6
20260503022322 35 0.0 0.0 0.00 0.00 0.00 10 1023.6
20260503021422 35 0.0 0.0 0.00 0.00 0.00 10 1023.6
20260503020522 35 0.0 0.0 0.00 0.00 0.00 10 1023.6
20260503015622 35 0.0 0.0 0.00 0.00 0.00 10 1023.7
20260503014722 35 0.0 0.0 0.00 0.00 0.00 10 1023.7
20260503013837 35 0.0 0.0 0.00 0.00 0.00 10 1023.7
20260503012922 34 0.0 0.0 0.00 0.00 0.00 10 1023.7
20260503012022 34 0.0 0.0 0.00 0.00 0.00 10 1023.6
20260503011137 34 0.0 0.0 0.00 0.00 0.00 10 1023.7
20260503010222 34 0.0 0.0 0.00 0.00 0.00 10 1023.7
20260503005322 33 0.0 0.0 0.00 0.00 0.00 10 1023.8
20260503004422 33 0.0 0.0 0.00 0.00 0.00 10 1023.8
20260503003522 33 0.0 0.0 0.00 0.00 0.00 10 1023.7
20260503002622 34 0.0 0.0 0.00 0.00 0.00 10 1023.6
20260503001722 34 0.0 0.0 0.00 0.00 0.00 10 1023.6